Weather History for YBCS - July, 2013

Change the Weather History Date:

Saturday, July 27, 2013

  Actual Average Record
Temperature  
Mean Temperature 70 °F -  
Max Temperature 77 °F 80 °F 82 °F (2010)
Min Temperature 64 °F 64 °F 55 °F (2008)
Cooling Degree Days 6    
Growing Degree Days 20 (Base 50)    
Moisture  
Dew Point 63 °F    
Average Humidity 79    
Maximum Humidity 100    
Minimum Humidity 49    
Precipitation  
Precipitation 0.03 in 0.03 in - ()
Sea Level Pressure  
Sea Level Pressure 30.08 in    
Wind  
Wind Speed 12 mph ()    
Max Wind Speed 26 mph    
Max Gust Speed 33 mph    
Visibility 6.6 miles    
Events Rain    
Averages and records for this station are not official NWS values.
T = Trace of Precipitation, MM = Missing Value Source: Averaged Metar Reports

Daily Weather History Graph

Daily Weather History Graph

Search for Another Location

Airport or City:

Trip Planner

Search our weather history database for the weather conditions in past years. The results will help you decide how hot, cold, wet, or windy it might be!

Date:

Astronomy

Jul. 27, 2013 Rise Set
Actual Time 6:44 AM AEST 6:03 PM AEST
Civil Twilight 6:21 AM AEST 6:25 PM AEST
Nautical Twilight 5:55 AM AEST 6:52 PM AEST
Astronomical Twilight 5:28 AM AEST 7:18 PM AEST
Moon 10:29 PM AEST (7/27) 9:52 AM AEST (7/27)
Length of Visible Light 12h 04m
Length of Day
11h 18m
Waning Gibbous, 76% of the Moon is Illuminated
Jul 27
Waning Gibbous
Jul 30
Last Quarter
Aug 7
New
Aug 14
First Quarter
Aug 21
Full

Hourly Weather History & Observations

Time (AEST) Temp. Dew Point Humidity Pressure Visibility Wind Dir Wind Speed Gust Speed Precip Events Conditions
12:00 AM 66 °F 62 °F 82% 30.12 in - South 12.7 mph - -   Overcast
12:00 AM 66.2 °F 62.6 °F 88% 30.09 in 6.2 mi South 12.7 mph - N/A   Mostly Cloudy
12:30 AM 68.0 °F 60.8 °F 78% 30.09 in 6.2 mi South 15.0 mph - N/A   Mostly Cloudy
1:00 AM 67 °F 61 °F 74% 30.09 in - South 12.7 mph - -  
1:00 AM 68.0 °F 60.8 °F 78% 30.06 in 6.2 mi South 12.7 mph - N/A   Mostly Cloudy
1:30 AM 66.2 °F 62.6 °F 88% 30.09 in 6.2 mi ESE 8.1 mph - N/A   Mostly Cloudy
2:00 AM 64.4 °F 64.4 °F 100% 30.06 in 6.2 mi Calm Calm - N/A   Mostly Cloudy
2:30 AM 66.2 °F 64.4 °F 94% 30.06 in 2.5 mi ESE 8.1 mph - N/A Rain Rain Showers
2:37 AM 64.4 °F 64.4 °F 100% 30.06 in 3.7 mi ESE 10.4 mph - N/A Rain Rain Showers
3:00 AM 66 °F 63 °F 88% 30.08 in 6 mi SE 9.2 mph - -   Overcast
3:00 AM 66.2 °F 62.6 °F 88% 30.06 in 6.2 mi SE 9.2 mph - N/A Rain Light Rain Showers
3:06 AM 66.2 °F 62.6 °F 88% 30.06 in 6.2 mi South 9.2 mph - N/A Rain Light Rain Showers
3:30 AM 66.2 °F 62.6 °F 88% 30.06 in 5.0 mi SW 5.8 mph - N/A Rain Light Rain Showers
4:00 AM 66 °F 64 °F 89% 30.07 in - SSE 10.4 mph - -  
4:00 AM 66.2 °F 64.4 °F 94% 30.06 in 6.2 mi SSE 10.4 mph - N/A   Overcast
4:30 AM 66.2 °F 62.6 °F 88% 30.06 in 6.2 mi South 12.7 mph - N/A   Overcast
5:00 AM 66.2 °F 62.6 °F 88% 30.06 in 5.6 mi SSE 13.8 mph - N/A Rain Light Rain Showers
5:30 AM 66.2 °F 62.6 °F 88% 30.06 in 6.2 mi South 12.7 mph - N/A   Overcast
6:00 AM 67 °F 62 °F 80% 30.08 in 12 mi South 11.5 mph - -   Partly Cloudy
6:00 AM 68.0 °F 62.6 °F 83% 30.06 in 6.2 mi South 11.5 mph - N/A   Mostly Cloudy
6:30 AM 66.2 °F 62.6 °F 88% 30.06 in 6.2 mi South 10.4 mph - N/A   Mostly Cloudy
7:00 AM 67 °F 63 °F 81% 30.09 in - SSE 9.2 mph - -  
7:00 AM 68.0 °F 62.6 °F 83% 30.06 in 6.2 mi SSE 9.2 mph - N/A   Mostly Cloudy
7:19 AM 68.0 °F 62.6 °F 83% 30.09 in 3.7 mi SSE 10.4 mph - N/A Rain Light Rain Showers
7:30 AM 66.2 °F 64.4 °F 94% 30.09 in 6.2 mi SE 12.7 mph - N/A   Mostly Cloudy
8:00 AM 66.2 °F 62.6 °F 88% 30.09 in 6.2 mi South 12.7 mph - N/A   Mostly Cloudy
8:30 AM 68.0 °F 62.6 °F 83% 30.09 in 5.0 mi South 10.4 mph - N/A   Mostly Cloudy
9:00 AM 67 °F 64 °F 88% 30.13 in 9 mi SSE 11.5 mph - -   Overcast
9:00 AM 68.0 °F 64.4 °F 88% 30.12 in 6.2 mi SSE 11.5 mph - N/A   Mostly Cloudy
9:30 AM 68.0 °F 64.4 °F 88% 30.12 in 6.2 mi South 10.4 mph - N/A   Mostly Cloudy
10:00 AM 71 °F 65 °F 78% 30.14 in - South 9.2 mph - -  
10:00 AM 71.6 °F 66.2 °F 83% 30.12 in 6.2 mi South 9.2 mph - N/A   Mostly Cloudy
10:30 AM 71.6 °F 64.4 °F 78% 30.12 in 6.2 mi SSE 12.7 mph - N/A   Mostly Cloudy
10:39 AM 71.6 °F 64.4 °F 78% 30.12 in 6.2 mi SSE 26.5 mph - N/A   Mostly Cloudy
11:00 AM 73.4 °F 64.4 °F 73% 30.12 in 6.2 mi SSE 15.0 mph - N/A   Mostly Cloudy
11:30 AM 75.2 °F 62.6 °F 65% 30.09 in 6.2 mi SE 20.7 mph - N/A   Scattered Clouds
12:00 PM 76 °F 61 °F 49% 30.10 in 19 mi SE 24.2 mph - -   Partly Cloudy
12:00 PM 77.0 °F 60.8 °F 57% 30.09 in 6.2 mi SE 24.2 mph - N/A   Partly Cloudy
12:30 PM 77.0 °F 62.6 °F 61% 30.06 in 6.2 mi SE 24.2 mph - N/A   Partly Cloudy
1:00 PM 77 °F 61 °F 49% 30.08 in - SE 20.7 mph - -  
1:00 PM 77.0 °F 60.8 °F 57% 30.06 in 6.2 mi SE 20.7 mph - N/A   Partly Cloudy
1:30 PM 77.0 °F 62.6 °F 61% 30.06 in 6.2 mi SE 21.9 mph - N/A   Partly Cloudy
2:00 PM 75.2 °F 60.8 °F 61% 30.04 in 6.2 mi SE 21.9 mph - N/A   Partly Cloudy
2:30 PM 75.2 °F 62.6 °F 65% 30.04 in 6.2 mi SE 19.6 mph - N/A   Scattered Clouds
3:00 PM 75 °F 62 °F 55% 30.04 in 19 mi SE 20.7 mph - -   Partly Cloudy
3:00 PM 75.2 °F 62.6 °F 65% 30.04 in 6.2 mi SE 20.7 mph - N/A   Scattered Clouds
3:30 PM 75.2 °F 60.8 °F 61% 30.04 in 6.2 mi SE 20.7 mph - N/A   Scattered Clouds
3:51 PM 73.4 °F 60.8 °F 65% 30.04 in 6.2 mi SE 21.9 mph 33.4 mph N/A   Scattered Clouds
4:00 PM 72 °F 62 °F 63% 30.05 in - South 16.1 mph - -  
4:00 PM 71.6 °F 62.6 °F 73% 30.04 in 6.2 mi South 16.1 mph - N/A   Scattered Clouds
4:30 PM 71.6 °F 62.6 °F 73% 30.04 in 6.2 mi South 16.1 mph - N/A   Scattered Clouds
5:00 PM 71.6 °F 60.8 °F 69% 30.04 in 6.2 mi South 17.3 mph - N/A   Mostly Cloudy
5:30 PM 68.0 °F 60.8 °F 78% 30.06 in 5.6 mi South 15.0 mph - N/A Rain Light Rain Showers
6:00 PM 68 °F 62 °F 77% 30.06 in - South 11.5 mph - -   Overcast
6:00 PM 68.0 °F 62.6 °F 83% 30.06 in 6.2 mi South 11.5 mph - N/A Rain Light Rain Showers
6:30 PM 68.0 °F 62.6 °F 83% 30.06 in 6.2 mi SSE 11.5 mph - N/A   Mostly Cloudy
7:00 PM 68 °F 62 °F 76% 30.08 in - South 11.5 mph - -  
7:00 PM 68.0 °F 62.6 °F 83% 30.06 in 6.2 mi South 11.5 mph - N/A Rain Light Rain Showers
7:30 PM 68.0 °F 62.6 °F 83% 30.06 in 6.2 mi South 11.5 mph - N/A   Scattered Clouds
8:00 PM 68.0 °F 62.6 °F 83% 30.09 in 6.2 mi South 12.7 mph - N/A   Scattered Clouds
8:30 PM 68.0 °F 62.6 °F 83% 30.09 in 6.2 mi South 11.5 mph - N/A   Scattered Clouds
9:00 PM 67 °F 63 °F 83% 30.09 in - SSE 13.8 mph - -  
9:00 PM 66.2 °F 62.6 °F 88% 30.09 in 6.2 mi SSE 13.8 mph - N/A Rain Light Rain Showers
9:30 PM 68.0 °F 62.6 °F 83% 30.09 in 6.2 mi South 16.1 mph - N/A   Scattered Clouds
10:00 PM 68 °F 62 °F 74% 30.10 in - South 15.0 mph - -  
10:00 PM 68.0 °F 62.6 °F 83% 30.09 in 6.2 mi South 15.0 mph - N/A   Scattered Clouds
10:30 PM 68.0 °F 62.6 °F 83% 30.06 in 6.2 mi South 15.0 mph - N/A Rain Light Rain Showers
11:00 PM 68.0 °F 62.6 °F 83% 30.06 in 6.2 mi South 13.8 mph - N/A Rain Light Rain Showers
11:30 PM 68.0 °F 62.6 °F 83% 30.06 in 6.2 mi South 12.7 mph - N/A   Scattered Clouds